RH
74 75 82 82 86 88 82 77 72 68 68 72 77 81 80 82 84 85 87 86 83 79 76 74 72 71 70 70 71 71 71 68 65 62 61 62 62 62 62 63 65 67 68 69 68 67 65 61 57 54 52 53 56 61 66 72 78 84 88 90 93 95 95 92 92 95 99 100 96 90 84 83 88 94 96 99 99 95 86 86 89 94 99 100 99 96 90 91 92 94 98 98 99 99 97 97 96 95 98 98 98 96 93
74 75 76 77 78 79 81 74 69 67 68 72 77 79 77 82 84 84 85 82 78 75 73 71 70 69 69 70 71 71 70 68 65 63 62 62 63 63 64 64 65 66 67 67 66 64 62 58 54 50 48 49 53 58 63 70 77 84 89 93 95 96 96 94 91 90 94 95 96 95 90 87 88 93 98 99 99 99 97 97 98 99 100 99 98 96 95 95 95 93 93 94 94 95 94 94 94 95 99 99 97 95 94
70 69 68 67 69 72 77 70 65 62 65 69 73 77 79 82 83 83 81 78 75 72 70 69 68 68 68 70 71 71 70 68 65 64 63 64 65 65 65 65 65 65 65 64 63 62 60 57 53 48 45 46 50 55 61 68 75 83 90 94 95 94 94 90 88 90 95 97 97 95 89 86 88 93 98 97 99 100 100 100 100 100 99 96 95 95 95 96 95 94 92 91 91 92 93 93 93 95 99 100 97 94 92
66 62 56 58 63 69 72 65 58 54 57 62 68 72 76 79 80 79 77 74 71 70 68 67 67 67 68 70 71 71 70 68 66 64 64 65 66 66 66 65 64 63 63 62 62 61 60 57 52 46 43 44 47 52 58 65 72 80 87 91 92 92 90 85 86 91 96 96 95 92 84 82 85 91 98 98 98 98 100 100 99 99 98 95 94 93 96 96 96 95 94 93 91 89 89 91 93 96 99 96 94 92 91
64 54 50 57 65 71 72 59 50 47 49 56 63 68 73 75 76 75 73 71 69 67 66 65 65 66 68 70 70 70 70 68 66 65 65 65 66 66 65 64 64 63 62 62 62 61 60 56 51 46 42 42 45 50 56 63 70 75 80 84 87 88 89 88 88 88 91 92 92 91 87 84 85 90 97 98 96 94 98 99 99 98 97 96 94 93 94 95 95 95 94 93 91 89 90 91 93 95 97 95 93 91 91
63 53 50 64 70 69 64 53 45 43 45 52 58 64 69 71 72 72 70 68 66 64 64 64 64 65 67 69 70 71 70 68 67 66 65 65 65 65 65 64 64 63 63 62 62 61 60 57 53 48 43 42 44 48 54 63 70 75 79 83 87 89 85 81 80 82 86 88 89 90 94 91 91 92 95 97 96 93 88 92 96 98 97 97 96 96 94 93 92 91 90 88 86 85 87 89 94 96 95 95 95 95 94
61 49 52 66 68 63 56 48 43 41 43 48 54 59 64 67 68 68 67 65 63 62 62 62 63 64 67 69 70 71 70 69 67 65 64 64 64 64 64 64 64 64 63 62 62 61 59 57 54 50 46 43 43 45 50 60 69 77 84 89 91 90 87 79 76 75 78 83 87 90 92 96 97 96 96 97 97 96 90 90 92 94 95 96 97 96 94 92 91 89 88 87 86 85 82 84 87 90 93 93 94 95 97
64 54 62 64 63 60 53 46 42 40 41 44 49 54 59 62 64 64 64 62 61 60 60 61 62 64 66 68 70 71 70 69 66 64 63 63 63 64 64 64 64 64 63 62 61 60 58 56 54 52 50 47 45 44 45 55 66 77 88 90 90 89 87 88 86 81 75 81 85 87 87 92 95 95 95 98 98 96 94 92 91 91 92 91 89 86 84 80 80 80 81 82 82 81 80 80 82 85 87 88 90 92 94
68 58 66 64 63 60 53 47 42 39 39 42 45 49 53 57 60 61 60 59 59 58 59 60 61 62 64 66 68 70 70 67 64 62 61 61 62 63 64 64 64 63 62 61 59 58 56 55 54 54 53 52 49 45 44 51 61 73 88 90 91 90 86 88 88 86 83 79 81 85 85 87 90 93 94 97 97 96 94 91 90 89 89 85 80 75 70 66 62 61 64 65 68 71 74 74 76 79 83 86 87 88 91
67 61 65 66 65 61 55 49 43 40 39 41 42 44 48 52 55 56 57 57 57 57 58 59 60 62 63 65 67 68 68 65 62 59 59 59 60 61 62 62 62 61 60 59 57 56 56 55 55 55 54 53 51 48 46 49 57 69 83 89 92 90 87 89 87 85 84 83 81 80 84 84 88 91 91 94 95 95 93 91 90 88 87 83 78 71 64 60 55 52 52 51 54 59 61 64 68 73 80 84 86 88 90
67 65 68 70 70 67 62 55 48 42 40 41 42 43 44 47 50 52 53 54 55 56 57 58 59 61 62 63 64 66 67 65 61 58 57 57 57 58 59 59 59 58 57 56 56 55 55 55 54 53 52 51 50 49 48 48 54 63 73 83 82 81 91 89 88 87 86 87 84 82 85 86 87 89 91 91 94 96 94 91 90 89 87 84 80 76 68 66 62 59 54 52 51 52 55 60 64 68 75 78 83 87 88
70 70 75 80 81 79 75 67 57 48 41 41 42 43 43 45 46 48 50 52 53 54 56 57 58 59 60 61 62 64 67 65 62 58 57 56 56 56 56 56 55 55 55 54 54 54 54 53 52 51 49 48 48 48 49 48 51 55 60 71 75 77 84 87 88 89 89 87 85 82 81 87 85 84 89 91 92 92 94 91 90 89 87 84 81 78 73 72 70 66 62 59 57 56 58 59 62 66 69 73 78 82 85
76 78 82 94 98 97 95 83 70 57 46 43 42 43 44 44 45 46 47 49 50 52 53 54 56 57 58 59 60 62 65 65 63 60 57 57 56 56 55 55 55 55 55 54 54 54 53 52 50 49 47 46 45 45 48 49 49 49 50 59 69 78 85 88 89 89 90 90 88 86 82 83 81 81 85 92 94 93 92 90 89 88 87 83 82 81 77 76 74 71 66 62 60 58 58 60 64 66 67 69 71 75 80
83 84 85 94 99 100 99 96 83 66 53 46 43 42 43 44 45 45 46 47 48 49 50 51 53 54 55 55 56 59 62 65 64 62 59 58 57 57 56 56 56 55 55 55 55 54 53 51 49 47 46 44 42 43 45 48 49 49 46 49 62 76 87 89 89 90 90 87 87 88 88 85 82 82 85 92 94 93 91 89 88 88 86 82 80 79 78 76 75 72 67 63 61 61 62 65 68 70 69 68 70 73 76
83 82 80 83 91 98 98 97 84 68 54 49 45 43 42 43 43 44 45 45 46 47 48 49 50 51 51 52 53 55 58 63 65 64 62 60 59 58 57 57 56 56 55 55 54 53 52 50 48 46 45 42 41 41 43 45 48 49 45 44 59 78 90 91 91 91 91 85 85 88 89 87 86 85 88 92 92 90 90 89 88 87 85 83 81 79 79 77 75 72 69 67 66 67 68 71 73 74 72 69 68 69 72
75 73 69 67 73 80 82 82 73 61 52 48 45 43 41 41 41 42 43 44 44 45 46 47 48 49 50 50 52 53 56 60 64 65 64 62 60 59 58 57 56 55 55 54 53 52 50 48 47 45 44 42 40 40 41 43 46 49 47 41 56 77 87 91 92 91 91 84 83 85 86 86 86 87 90 91 91 90 90 90 89 88 86 85 83 81 80 77 74 71 70 70 72 74 75 77 77 77 77 72 70 70 70
70 67 63 60 56 55 56 58 56 53 50 48 46 44 41 40 40 40 41 42 42 43 44 45 46 47 48 49 51 52 54 57 61 64 65 63 61 60 58 57 56 55 55 53 52 51 49 47 45 44 43 41 40 40 40 41 44 47 48 39 51 71 84 90 92 91 91 85 82 83 88 85 84 86 90 92 92 91 90 90 90 89 87 85 83 80 78 75 73 71 71 74 77 79 80 81 80 79 79 79 76 73 71
70 69 66 63 59 54 50 49 49 50 51 51 50 48 46 44 42 40 40 40 41 42 43 44 46 47 48 49 50 51 52 55 58 61 64 64 62 61 59 57 57 56 55 54 52 50 47 45 44 42 41 40 40 39 39 40 42 45 47 36 46 65 81 88 90 91 92 85 81 81 87 87 87 89 94 94 92 91 90 90 89 87 85 83 79 76 74 73 73 73 76 78 80 82 81 82 82 82 81 82 80 78 76
74 74 73 71 68 64 58 53 52 51 53 54 54 54 53 50 47 45 43 43 42 43 43 45 46 47 48 49 49 49 51 53 56 59 61 62 62 61 60 58 57 56 56 54 52 49 46 44 41 40 39 39 39 39 39 38 39 42 45 35 40 58 84 88 89 90 91 87 81 78 84 87 89 91 93 93 93 91 90 90 88 85 82 79 75 73 72 73 74 76 79 80 81 82 83 83 83 84 84 84 84 83 83
78 79 80 78 77 74 69 64 61 58 58 59 59 59 58 56 53 51 48 47 46 45 44 45 46 48 49 49 48 49 50 52 55 57 59 61 61 61 60 59 57 56 54 52 50 47 45 42 39 38 37 37 37 38 38 37 37 38 43 35 35 49 81 85 88 89 90 91 84 79 83 87 90 90 90 92 92 91 89 88 86 83 80 77 74 72 72 72 75 78 80 82 82 82 83 83 83 83 84 85 84 83 84
80 81 82 82 82 81 79 75 72 68 65 65 65 64 63 60 57 54 52 50 48 46 45 44 45 47 48 48 48 48 50 52 55 57 59 60 60 59 59 58 56 54 52 50 48 45 43 40 38 36 36 36 36 37 37 36 35 36 40 36 33 40 71 81 87 91 91 92 88 84 86 88 88 88 90 90 91 90 89 87 84 81 78 76 74 73 71 72 75 78 80 83 84 84 85 84 84 84 84 85 84 83 84
82 82 82 82 82 83 83 81 79 76 73 71 69 67 66 63 60 56 53 51 49 47 45 44 45 45 46 47 48 49 50 53 56 58 60 59 59 58 58 57 55 53 50 48 45 43 41 38 36 35 35 35 36 36 36 35 34 33 36 37 32 35 60 75 84 88 87 88 88 88 87 87 87 88 90 90 90 89 88 86 83 79 77 75 74 73 71 73 75 78 81 83 85 85 85 85 85 84 85 85 85 84 85
84 82 80 78 77 78 79 80 79 78 77 74 70 68 67 66 62 59 56 54 52 50 47 46 46 46 46 47 48 49 51 54 56 59 60 59 58 57 56 55 53 51 49 46 44 42 39 37 35 34 34 35 35 35 34 33 32 31 33 37 33 32 47 69 80 84 86 85 86 87 87 87 88 89 90 90 89 89 87 84 81 78 76 75 75 74 72 73 75 78 81 83 85 85 85 85 85 85 86 85 85 85 85
84 80 76 72 69 69 70 73 75 76 76 74 70 67 66 66 64 62 60 57 55 53 51 50 49 49 49 49 49 50 52 54 57 58 59 58 57 55 54 53 52 50 47 45 42 40 37 36 34 34 34 34 34 34 33 32 30 29 29 35 33 30 37 63 76 82 88 83 82 83 84 87 88 89 90 89 89 88 86 83 80 78 77 76 75 74 73 74 75 78 81 84 84 85 85 85 85 86 86 86 86 85 85
79 74 69 65 62 61 61 65 69 71 73 73 71 68 65 64 64 63 62 61 59 57 55 53 53 53 53 52 52 53 53 55 56 58 58 57 55 53 52 52 50 48 45 43 40 38 36 35 34 34 34 34 34 33 32 31 29 27 26 32 32 30 30 52 70 82 89 84 82 81 81 84 87 89 90 89 88 87 85 82 80 79 78 76 75 74 73 74 76 79 82 84 85 85 85 85 84 85 86 86 86 86 85
71 66 62 59 57 57 57 61 64 67 71 72 72 71 68 65 63 62 63 63 63 61 59 57 55 55 55 55 55 55 55 56 56 57 56 55 53 52 51 50 49 46 44 41 39 37 36 35 35 35 35 34 34 34 33 31 29 27 24 28 31 31 27 42 61 77 81 84 83 80 79 82 86 89 89 88 87 86 84 83 81 80 78 77 76 74 72 74 77 80 83 84 84 84 84 84 85 86 86 86 86 85 82
62 59 57 56 56 57 58 59 62 65 68 70 72 72 71 67 64 63 63 64 65 65 64 61 59 57 57 57 57 56 56 56 56 55 54 53 51 50 49 48 47 45 42 40 39 38 37 36 36 36 36 35 35 34 34 33 31 28 25 26 29 31 27 34 50 67 76 85 85 81 78 82 86 88 87 87 86 86 85 83 82 80 78 76 74 73 71 73 76 80 82 84 85 85 84 84 85 86 86 86 86 85 81
57 56 57 58 59 60 61 62 62 63 64 66 68 69 70 68 65 63 63 65 67 68 68 65 62 60 58 57 57 57 56 56 55 54 53 51 49 47 46 45 44 43 41 40 39 38 38 38 38 37 37 36 35 35 34 34 33 31 28 26 28 29 28 29 39 54 69 79 85 86 80 82 85 87 87 86 85 85 84 83 82 80 78 75 73 73 72 73 76 79 81 84 85 85 84 85 86 86 87 87 86 84 78
58 59 61 63 64 65 65 66 65 64 63 63 62 62 62 63 62 62 61 64 67 69 70 68 65 62 59 57 56 56 56 55 54 53 51 49 47 46 44 43 42 41 40 40 39 39 39 39 39 38 37 36 36 35 34 35 35 34 31 28 27 28 29 27 31 42 60 70 79 86 89 85 86 88 88 86 85 85 84 84 82 80 78 76 74 73 73 75 78 81 84 85 86 85 84 85 86 86 87 87 86 85 81
61 63 66 68 69 69 69 69 68 67 65 63 60 57 54 55 55 56 57 61 65 69 70 69 66 62 59 57 56 55 56 55 54 52 50 49 48 47 45 44 43 42 41 40 40 40 40 40 39 38 38 37 36 35 34 35 36 36 35 31 29 28 29 27 28 34 47 62 73 81 88 88 88 89 89 88 87 86 85 85 83 80 78 77 75 75 76 78 79 82 85 86 86 85 85 85 85 85 87 87 86 85 84
65 67 69 71 72 72 72 71 69 68 66 63 59 55 50 48 48 49 52 57 63 68 71 69 65 62 59 56 55 55 55 55 53 52 51 50 50 50 50 49 47 46 44 43 42 41 41 40 40 39 38 37 36 35 34 34 36 37 38 34 31 29 29 28 27 30 39 51 62 73 81 88 89 89 89 86 86 86 87 85 83 81 78 76 75 75 76 78 80 82 85 86 86 85 85 85 85 86 86 86 86 84 80
69 71 72 73 74 74 74 73 71 69 66 62 59 55 50 47 45 45 47 53 60 66 71 70 68 65 62 59 56 55 54 53 53 52 52 52 53 54 54 53 51 49 47 45 44 43 42 41 40 39 38 37 36 35 34 34 35 37 39 38 35 31 29 28 27 29 35 44 51 61 76 85 87 87 85 85 83 82 85 86 84 82 79 76 75 74 74 76 79 81 84 85 86 87 86 85 85 85 86 87 83 77 72
72 73 74 75 76 76 76 75 73 71 67 64 61 58 55 52 49 48 49 53 59 64 70 71 72 71 70 65 61 57 53 51 51 51 52 53 54 55 55 53 50 47 45 44 43 43 42 41 40 39 38 37 36 35 34 34 35 37 39 40 39 35 31 29 27 28 33 42 49 56 68 78 84 87 88 83 80 80 84 85 84 81 79 76 74 72 73 75 77 80 83 84 86 87 86 85 85 85 85 85 83 79 71
74 75 76 76 76 76 77 76 74 72 70 66 63 62 60 58 57 56 56 58 61 65 68 71 73 75 76 74 69 63 56 52 49 48 49 50 51 51 50 48 45 43 41 40 40 40 40 40 39 38 37 36 36 35 34 35 35 36 38 41 42 40 35 31 28 27 28 39 50 58 64 71 77 83 85 84 81 80 84 86 84 81 78 76 75 74 74 75 77 79 82 84 85 85 86 86 85 84 83 84 80 76 75
76 76 77 76 76 76 76 75 74 73 72 69 67 65 63 62 62 62 62 64 66 68 69 71 73 75 77 78 76 72 67 60 55 52 49 49 48 47 46 44 42 40 38 37 37 37 38 38 38 37 37 36 36 35 35 35 36 37 38 41 43 43 41 36 31 28 26 32 43 54 61 68 75 79 80 84 82 79 83 85 85 82 79 77 75 75 75 76 78 80 81 83 85 86 85 86 85 84 83 83 80 76 77
77 77 77 77 76 75 74 74 73 73 72 71 69 67 66 65 65 65 65 67 69 70 71 72 73 74 76 77 78 77 75 71 66 62 59 56 54 52 49 46 43 40 37 36 36 36 36 36 37 37 36 36 36 36 36 36 37 37 38 40 42 44 44 41 36 32 28 28 35 46 58 67 73 76 75 81 82 82 84 85 85 83 80 78 77 76 75 76 77 80 82 83 84 85 86 86 85 85 84 83 81 77 75
79 79 79 78 77 76 74 73 73 72 72 72 70 69 68 67 67 66 67 68 69 70 71 73 74 75 75 76 76 77 77 76 74 71 69 67 65 62 60 56 51 47 42 39 38 37 37 38 38 37 37 36 36 36 36 37 37 38 39 40 41 43 44 43 41 37 32 29 30 36 48 61 67 71 76 80 83 84 82 84 85 83 81 79 78 78 78 78 78 80 82 84 85 86 85 85 85 86 85 85 83 79 76
81 81 81 81 80 78 76 75 74 73 72 72 72 71 70 69 68 68 67 67 68 69 70 71 73 74 75 76 76 76 76 77 76 75 74 73 72 71 69 66 62 57 52 47 44 42 40 40 40 38 37 36 36 36 37 37 38 39 39 40 41 42 42 43 42 40 37 33 32 33 38 49 59 67 73 78 81 84 83 85 85 84 82 80 79 78 79 79 80 81 82 84 85 85 85 85 85 86 87 87 85 82 77
82 82 82 82 81 81 79 77 76 74 73 73 72 72 71 70 70 69 68 68 67 67 68 69 70 71 73 74 75 76 76 76 76 76 75 75 74 73 73 72 70 67 62 57 52 47 44 42 41 39 37 37 36 37 37 38 38 39 40 40 40 41 41 41 41 41 40 37 34 31 30 36 46 58 68 74 78 83 85 84 84 84 83 80 78 78 78 78 79 80 82 83 83 84 84 84 84 85 86 87 87 85 79
81 81 81 81 81 81 81 79 78 76 75 74 73 73 72 71 71 70 70 70 69 68 68 68 68 69 70 71 72 74 75 76 76 76 75 75 75 74 74 73 73 71 69 64 59 53 48 45 42 40 38 37 37 37 37 38 39 40 40 40 40 40 40 40 40 40 40 39 37 34 31 31 36 45 57 66 74 80 84 84 84 83 82 81 79 78 77 78 79 80 80 80 81 82 82 83 83 82 83 86 88 87 84
80 80 80 80 80 80 81 80 79 78 77 75 75 74 73 72 72 72 72 71 71 70 69 68 68 68 68 68 69 70 71 73 75 75 76 76 75 75 75 74 74 73 71 68 63 58 53 48 45 42 39 38 37 37 38 39 39 40 41 41 41 40 40 39 39 38 39 39 39 37 35 32 32 35 42 53 64 74 82 85 85 85 84 82 81 79 78 78 78 78 78 79 79 80 81 82 81 81 80 83 86 88 87
80 79 78 79 79 79 79 79 79 79 78 77 76 75 75 74 73 73 73 72 72 71 71 70 69 69 69 68 68 68 69 70 72 73 75 75 76 76 76 76 75 74 72 70 66 62 58 53 49 45 41 39 38 38 38 39 40 41 41 41 41 40 40 39 38 37 37 38 38 38 37 34 32 32 34 40 49 60 72 80 84 86 85 82 80 80 80 79 78 78 78 78 78 79 81 82 81 81 80 80 83 85 87
80 79 78 78 78 78 78 78 78 78 78 78 78 77 76 75 75 74 74 73 73 72 72 71 71 70 70 69 69 69 69 69 70 71 73 75 76 77 77 77 76 75 74 72 69 66 63 58 53 49 45 42 40 39 39 40 41 41 41 41 41 40 40 39 38 37 36 36 37 37 37 36 34 32 31 33 37 45 55 66 74 80 84 82 81 80 80 80 79 78 77 77 77 78 80 81 82 81 81 80 81 83 85
80 80 79 79 78 78 78 78 78 78 78 78 78 78 77 77 76 76 75 75 74 74 73 72 72 71 71 71 70 70 70 69 70 71 73 75 77 78 78 77 76 75 75 73 72 69 66 62 58 53 49 45 43 41 41 41 41 41 41 41 41 40 40 39 38 37 36 36 36 36 36 36 34 33 31 30 32 36 42 51 60 68 75 79 80 79 79 79 79 79 78 76 76 77 78 80 81 81 81 80 81 82 84
80 80 80 79 79 79 79 79 79 79 78 79 78 78 78 78 77 77 76 76 76 75 74 73 73 72 72 72 72 72 71 72 73 75 77 78 79 79 79 78 77 76 75 74 73 71 69 66 62 58 54 51 48 46 44 43 42 42 41 41 41 40 40 40 39 37 36 36 35 35 35 35 34 33 31 30 30 32 35 42 49 57 64 71 75 77 78 78 78 79 80 78 77 77 77 78 79 80 80 80 80 81 83
79 79 80 79 79 79 79 79 79 79 79 79 79 79 79 78 78 78 77 77 76 75 74 73 73 73 73 73 73 74 74 75 77 79 81 81 81 81 80 79 77 76 75 74 73 72 71 69 67 64 62 59 56 53 49 46 44 43 41 41 41 41 41 40 39 38 36 36 35 34 34 34 34 33 31 30 30 30 32 36 42 50 57 62 67 70 71 70 71 73 76 76 77 78 78 78 78 79 78 79 79 80 81
78 78 79 79 79 79 80 80 80 80 80 80 80 79 79 79 78 78 78 77 76 75 74 74 74 74 74 75 75 76 76 78 80 82 84 84 83 82 80 79 78 76 75 74 73 72 70 69 68 67 66 64 61 58 55 52 49 46 45 45 45 44 43 42 40 38 37 35 34 34 33 33 33 32 31 31 30 30 31 33 37 43 50 57 61 63 62 60 61 65 70 73 75 77 79 79 79 78 78 77 78 78 80
78 78 79 79 79 80 80 80 80 80 80 80 80 80 79 79 79 78 78 78 77 77 76 75 75 75 75 76 76 77 77 79 82 85 87 87 86 84 81 79 77 75 73 72 71 70 69 68 67 66 65 65 63 62 60 58 56 55 54 53 52 51 49 47 44 41 38 36 34 33 32 32 32 32 31 31 31 31 31 32 33 36 42 48 54 59 60 57 57 61 67 72 74 76 78 79 80 79 78 78 77 78 79
78 78 78 79 79 80 80 81 81 81 81 81 80 80 79 79 79 79 78 78 78 78 78 77 77 76 77 77 77 78 78 79 81 84 87 88 88 87 85 81 78 75 73 72 70 69 68 67 67 67 66 66 65 64 63 62 61 60 59 57 56 54 53 51 48 45 41 38 36 34 32 32 31 31 31 31 31 31 31 32 32 33 35 39 45 51 56 57 58 59 62 69 73 75 77 78 79 79 78 78 78 78 78
78 78 78 79 79 80 80 81 81 81 81 81 81 80 80 80 80 79 79 79 79 79 79 79 79 78 78 78 78 78 79 80 82 85 89 91 92 91 88 84 79 76 74 72 71 70 69 69 68 68 67 66 65 64 63 62 61 60 58 57 56 55 53 52 49 47 44 42 39 37 34 33 32 31 31 31 31 31 31 32 32 32 33 34 36 41 47 53 56 57 57 62 68 73 76 76 76 77 78 79 79 79 79
79 79 79 79 79 80 80 81 81 82 82 82 82 81 81 81 81 81 81 82 82 82 81 81 81 81 80 79 79 79 79 81 84 87 91 92 92 90 87 82 79 77 75 74 72 71 70 69 68 67 66 65 64 63 62 61 60 59 58 56 55 54 53 52 50 48 46 44 42 40 38 36 34 33 32 31 31 31 31 32 32 33 33 33 33 34 37 44 49 53 54 56 60 66 72 75 76 76 76 77 78 78 78
81 80 80 80 80 80 80 81 82 83 83 83 83 83 83 83 83 83 83 84 85 85 85 84 84 83 83 82 81 81 82 83 86 88 89 89 88 85 80 78 77 80 89 77 74 73 70 69 68 67 66 65 64 62 61 60 59 57 56 55 54 53 52 51 49 48 47 45 44 43 41 39 38 36 35 34 33 32 32 32 32 33 33 33 33 33 33 36 41 47 52 53 55 59 66 72 76 78 77 76 76 76 76
82 82 82 82 81 81 81 82 83 83 84 85 85 85 86 86 87 87 87 88 88 88 88 88 87 86 86 87 86 85 85 85 86 86 86 85 83 81 78 83 85 82 74 73 77 79 68 68 67 66 65 63 62 60 59 58 57 56 55 55 54 53 52 50 48 47 46 46 46 45 45 45 43 42 40 38 37 35 34 33 33 33 33 34 34 34 33 33 36 41 47 49 50 53 59 67 74 78 80 79 78 77 76
83 83 83 83 82 82 82 83 84 85 86 87 87 87 88 90 91 92 92 92 91 90 91 91 90 89 89 90 90 89 89 87 86 85 83 82 81 81 83 87 90 89 83 83 82 81 79 77 70 63 63 62 62 62 62 61 60 58 57 55 54 52 50 49 49 49 49 50 51 53 54 56 56 55 52 50 47 43 40 37 35 33 33 33 34 35 35 35 35 38 43 46 48 51 54 61 68 75 80 81 82 81 79
81 81 82 82 83 83 84 85 87 87 88 88 88 88 89 90 92 93 94 94 94 94 93 93 93 93 92 93 93 92 92 90 88 85 82 80 79 79 81 87 89 87 82 80 79 81 86 83 75 68 68 67 66 65 64 62 60 58 57 56 55 55 55 56 57 58 60 62 62 63 64 65 65 65 64 62 60 56 51 45 41 36 33 33 33 35 36 37 37 38 41 45 47 50 53 57 63 70 77 80 82 82 82
79 80 81 81 82 83 85 87 88 89 89 89 88 88 86 86 87 90 93 95 96 96 96 97 97 96 95 95 94 94 93 92 89 86 82 79 78 78 77 81 84 86 90 82 76 78 93 80 78 78 72 67 64 64 63 62 61 61 62 63 65 67 67 67 66 66 66 66 66 67 67 67 68 68 69 70 69 68 65 59 52 45 38 34 32 33 34 36 38 39 41 44 48 52 56 59 63 68 73 77 80 82 83
79 80 80 81 82 84 87 89 89 90 90 89 89 89 87 87 87 88 90 92 94 95 96 97 97 98 98 98 97 96 95 94 91 88 85 82 79 77 76 77 78 80 83 82 83 85 87 83 82 80 76 70 68 69 69 69 69 69 69 70 70 69 68 68 67 67 66 67 67 68 69 69 70 71 72 73 74 74 73 68 62 55 47 40 35 32 32 34 36 39 42 46 49 53 60 64 67 70 73 77 79 81 81
79 79 80 81 83 85 88 89 90 90 89 89 89 89 89 89 89 89 88 89 90 91 94 96 96 96 97 99 99 98 98 96 94 91 87 85 81 77 75 74 74 74 75 74 77 81 82 85 84 80 78 74 73 72 71 71 71 71 71 71 70 70 69 68 68 68 68 68 69 70 71 72 73 74 75 76 76 76 75 72 68 62 55 48 41 35 32 33 35 39 44 49 53 56 62 68 71 74 77 80 82 83 82
78 79 80 82 84 87 90 91 91 91 90 90 90 90 90 91 91 91 89 89 89 90 93 95 95 95 96 98 99 99 99 97 96 94 92 88 84 80 76 74 72 71 70 72 73 73 74 78 77 75 78 77 74 72 72 72 72 72 73 73 73 72 72 71 70 70 70 71 71 72 73 75 76 77 78 78 79 79 78 75 71 67 61 54 47 41 36 34 35 39 45 53 57 60 64 70 74 77 78 80 83 85 87
77 78 80 82 85 88 91 92 93 92 92 91 91 90 90 91 91 92 91 91 91 92 94 94 93 92 91 95 97 99 100 98 97 96 95 93 90 87 85 83 79 75 73 72 71 70 68 69 74 79 80 80 79 77 75 74 74 74 75 76 76 75 74 73 73 72 72 73 74 75 76 78 79 80 81 81 81 80 79 76 73 70 65 59 53 47 42 38 37 39 46 54 59 62 65 71 75 78 79 81 84 87 90
76 78 81 83 85 87 91 93 94 94 93 92 92 92 91 91 92 92 93 93 94 96 97 95 93 91 89 91 95 99 100 99 98 96 96 95 93 90 89 87 84 81 78 74 71 68 66 66 67 69 73 81 83 82 82 80 79 77 77 77 77 76 76 75 75 75 76 77 78 79 80 81 82 84 84 84 83 81 79 77 75 73 69 64 59 54 49 44 41 40 44 53 59 63 66 71 76 79 83 86 88 90 91
Wind_Speed
10 11 12 12 12 12 11 10 10 10 12 13 14 14 15 14 14 14 13 13 14 14 14 14 14 14 13 11 10 9 9 9 9 9 10 10 10 10 9 10 10 10 10 10 10 9 9 9 9 9 9 9 9 9 10 10 11 11 10 10 10 10 9 8 8 9 10 12 11 9 8 9 9 10 11 15 15 12 9 6 4 5 8 12 15 13 10 11 12 13 14 15 16 16 14 12 10 10 10 10 11 11 11
10 11 11 12 12 12 11 10 10 11 12 13 14 14 14 14 14 13 13 14 14 14 14 14 14 13 12 11 10 9 8 8 8 9 9 9 9 9 9 9 9 10 10 9 9 9 9 8 8 8 8 8 8 9 9 9 10 10 9 9 9 9 9 7 7 8 9 9 10 10 9 8 8 9 10 14 15 14 11 9 9 12 14 15 14 12 11 11 12 12 13 14 14 14 12 11 10 10 10 10 11 11 11
9 10 10 11 11 11 10 10 10 11 12 13 14 14 14 14 14 13 13 14 14 14 14 14 13 12 11 10 9 8 8 8 8 8 8 8 8 8 8 8 9 9 9 9 8 8 8 8 8 8 8 8 8 8 8 8 9 9 8 8 8 8 7 6 6 6 6 8 10 11 9 8 8 8 8 11 14 16 15 16 16 16 15 13 12 11 11 11 11 11 11 12 12 12 11 10 10 10 10 11 12 12 11
9 9 10 11 11 11 10 9 10 12 13 14 14 14 14 14 14 13 13 14 14 13 13 13 12 11 10 9 8 7 7 7 7 7 8 8 8 7 7 8 8 8 8 8 8 7 8 8 8 7 7 7 7 7 7 7 8 8 7 7 7 7 7 6 5 5 6 8 9 9 8 7 7 7 8 9 11 14 16 17 16 16 14 12 11 10 10 10 10 10 10 10 10 11 11 10 9 9 10 12 13 12 10
8 9 10 10 11 10 10 10 11 12 13 14 14 14 14 14 14 13 13 13 13 13 13 12 12 11 10 8 7 7 6 6 6 6 7 7 7 7 7 7 7 7 7 7 7 7 7 7 7 7 7 7 6 6 6 6 7 7 6 6 6 6 5 5 4 4 5 6 7 7 6 6 7 7 7 8 9 10 12 13 14 14 13 12 11 9 9 9 9 9 9 9 9 10 10 9 8 8 9 9 9 9 8
8 9 10 10 10 10 10 10 11 12 13 14 14 14 14 14 14 13 13 13 12 12 12 12 11 10 9 8 7 6 5 5 5 6 6 6 6 7 6 6 7 7 7 7 7 6 7 7 7 7 6 6 6 6 5 5 6 6 6 6 5 5 4 3 3 3 4 5 5 5 6 5 6 7 7 7 7 7 8 10 12 13 12 11 10 9 8 8 8 8 8 8 8 8 8 8 8 7 6 6 6 6 7
7 8 9 10 10 10 10 10 11 12 13 14 14 14 14 14 13 13 12 12 12 11 11 11 10 9 8 7 6 6 5 5 5 5 6 6 6 6 6 6 6 6 6 6 6 6 6 6 6 6 6 6 5 5 5 4 5 5 5 5 5 4 3 3 3 3 3 4 4 5 5 5 6 7 7 7 7 7 7 7 8 10 11 10 10 8 8 7 7 7 7 6 6 6 6 6 6 5 5 5 5 5 5
8 8 9 9 10 10 10 10 11 12 13 14 14 14 14 14 13 13 12 12 11 11 11 10 9 9 8 7 6 5 5 5 5 5 6 6 6 6 6 6 6 6 6 6 6 6 6 5 5 6 6 5 5 5 4 4 4 4 5 5 4 4 4 4 4 4 3 3 4 4 3 4 4 6 7 7 8 8 8 7 7 7 8 9 8 7 6 6 5 5 5 5 5 4 4 3 3 3 3 3 3 4 4
8 8 9 9 9 10 10 10 11 12 13 14 14 14 14 14 14 13 12 11 11 10 10 9 9 8 7 7 6 5 5 5 5 6 6 6 6 6 6 6 6 6 6 6 6 5 5 5 5 5 5 5 5 4 4 3 3 4 4 4 4 4 4 4 4 4 4 3 3 3 3 2 3 4 5 6 7 7 7 6 6 6 6 6 5 5 4 4 4 4 4 3 3 3 2 2 1 1 1 2 2 2 3
8 8 8 8 9 9 9 9 10 12 13 13 14 14 15 14 14 13 12 11 10 10 9 9 8 8 7 6 6 5 5 5 5 6 6 7 7 7 6 6 6 6 5 5 5 5 4 4 4 4 5 5 5 4 4 3 2 2 3 4 4 3 3 3 4 4 3 3 2 2 2 1 1 2 3 3 5 6 5 5 4 4 4 3 3 3 3 3 4 4 4 4 4 3 3 2 1 1 1 1 1 1 2
8 8 8 7 8 9 9 9 9 11 12 13 14 14 15 15 14 14 13 12 11 10 9 9 8 7 7 6 6 5 5 5 5 6 6 7 7 7 7 6 6 5 5 4 4 4 3 3 3 4 4 5 5 5 4 3 2 1 2 2 3 3 3 3 3 3 3 2 2 1 1 1 1 1 2 1 2 3 3 3 2 3 3 3 3 3 4 4 5 5 5 5 5 4 3 3 2 2 2 2 1 1 1
9 9 7 6 7 8 8 8 8 9 11 12 13 13 14 14 14 14 13 12 11 10 9 9 8 7 7 6 6 5 5 5 5 5 6 7 7 7 6 6 5 4 4 3 3 2 2 2 3 4 4 5 5 5 5 4 3 2 1 1 1 1 2 2 3 3 3 3 2 2 0 0 0 1 1 1 1 1 2 2 2 2 3 3 4 4 5 5 6 6 6 6 6 5 4 3 2 2 2 2 2 1 1
10 9 7 6 6 7 7 7 7 8 9 10 11 12 13 13 13 13 12 12 11 10 10 9 8 8 7 6 6 6 6 5 5 5 5 6 6 6 6 5 4 3 3 2 1 1 1 2 3 4 5 5 6 6 5 5 4 3 2 1 1 1 2 2 2 2 3 3 2 2 0 0 1 1 1 0 1 1 1 1 2 2 3 3 4 5 6 6 7 7 7 7 7 6 5 4 3 2 2 2 2 2 1
9 9 7 6 6 7 7 7 7 8 8 9 9 10 11 11 12 12 11 11 11 10 10 9 9 8 7 7 6 6 6 6 5 5 5 5 5 5 5 4 3 3 2 1 0 1 2 3 3 4 5 6 6 6 6 5 5 4 3 2 1 1 2 2 2 2 2 3 2 1 0 1 1 1 2 1 0 0 1 1 1 2 3 4 4 5 6 7 7 8 8 7 7 6 5 4 3 2 2 2 2 2 2
8 7 5 4 5 7 7 7 7 8 8 8 8 9 10 10 10 11 10 10 10 10 10 9 9 8 8 7 7 6 6 6 6 5 5 5 5 4 4 4 3 3 2 1 1 1 2 3 4 5 5 6 6 6 6 6 5 5 4 3 2 1 2 2 2 2 3 3 2 1 0 1 1 1 2 1 1 1 1 1 2 2 3 4 5 6 6 7 7 7 8 7 6 5 4 3 3 2 2 2 2 2 2
6 4 2 1 2 4 6 7 8 9 9 8 8 9 9 9 10 10 10 10 10 10 10 9 9 9 8 8 7 7 7 7 7 6 6 5 5 4 4 4 3 3 2 2 2 2 3 4 4 5 6 6 7 7 7 6 6 5 4 3 2 1 2 2 2 3 3 3 2 1 1 0 0 1 2 2 2 2 2 2 2 3 4 4 5 6 7 7 7 7 7 6 5 4 4 3 3 3 3 2 1 1 2
5 3 1 1 1 2 4 5 7 8 8 8 8 8 8 9 9 10 10 10 10 10 10 10 9 9 9 8 8 8 8 8 8 8 7 6 6 5 4 4 4 4 3 3 3 3 3 4 5 5 6 6 7 7 7 7 7 6 5 4 2 1 2 2 3 3 3 3 2 1 2 1 1 1 2 2 2 2 2 2 3 3 4 5 6 6 7 8 8 7 6 5 5 4 3 3 3 3 3 3 2 1 1
6 4 3 2 1 2 3 4 6 7 7 7 7 7 7 8 8 9 10 10 10 10 10 10 10 10 10 9 9 9 9 9 9 9 9 8 7 6 6 5 5 5 5 4 4 4 4 4 5 5 6 6 7 7 7 7 7 7 6 4 2 2 2 3 3 4 4 4 3 2 2 1 2 2 3 2 2 2 2 2 3 4 5 5 6 7 8 8 8 7 6 5 4 4 3 3 3 3 3 3 3 2 0
7 6 5 4 2 2 3 4 5 6 6 6 6 6 6 7 7 8 9 9 10 10 11 11 11 11 10 10 10 10 9 10 10 10 10 9 9 8 8 7 7 6 6 6 5 5 5 5 5 6 6 6 7 7 8 8 8 8 7 5 3 2 2 3 4 5 5 5 4 2 2 2 2 3 2 2 2 2 3 3 3 4 5 6 7 8 8 8 7 6 5 5 4 4 3 3 3 3 3 3 3 2 1
9 8 7 5 4 3 3 4 4 5 5 5 5 5 6 6 6 7 8 9 9 10 11 11 11 11 11 11 10 10 10 10 10 10 10 10 10 10 9 9 8 7 7 6 6 6 6 6 6 6 6 7 7 8 8 8 9 8 8 6 4 3 3 3 4 5 5 5 4 3 2 3 3 3 3 3 3 3 3 3 3 4 5 6 8 8 8 8 7 6 5 5 4 4 3 3 3 3 3 3 2 2 2
9 9 8 7 6 5 5 5 5 5 5 5 5 5 5 6 6 7 7 8 9 10 10 11 11 11 11 11 11 11 10 10 10 11 11 11 11 10 10 9 9 8 7 7 7 6 6 6 6 6 7 7 8 8 9 9 9 9 8 7 5 4 4 3 4 5 6 5 5 4 3 3 4 4 4 4 4 4 4 4 4 5 6 7 8 9 8 8 6 6 5 5 4 4 4 4 4 3 3 3 2 2 2
9 9 8 8 7 7 7 6 6 6 5 5 5 5 5 5 5 6 7 7 8 9 9 10 10 10 11 11 11 11 11 11 11 11 11 11 11 11 10 10 9 8 8 7 7 7 7 7 7 7 7 8 8 9 9 10 10 10 9 7 5 4 5 3 4 5 6 6 6 5 4 4 5 5 5 5 4 4 4 4 5 6 7 8 8 8 8 7 6 5 5 5 4 4 4 4 4 4 3 3 3 3 2
9 9 9 9 8 8 8 7 7 6 6 6 5 5 5 5 5 5 6 7 7 8 8 9 9 10 11 11 11 11 11 11 11 11 11 11 11 11 11 10 9 9 8 8 8 7 7 7 8 8 8 8 9 9 10 11 11 10 9 8 6 5 5 4 4 5 6 7 7 6 6 5 5 5 5 5 5 5 5 5 6 6 7 8 8 8 7 7 6 5 5 4 4 4 4 4 4 4 4 4 3 3 3
9 9 9 9 9 9 8 8 7 7 7 6 6 5 5 5 5 5 6 6 7 7 8 9 9 10 10 11 11 11 11 11 11 11 11 11 11 11 11 10 10 9 9 8 8 8 8 8 8 8 9 9 9 10 10 11 11 11 10 8 7 6 6 6 5 5 6 7 7 7 7 6 6 6 6 6 6 6 6 6 7 7 7 8 8 8 7 7 6 5 4 4 5 5 5 4 4 4 4 4 4 4 4
10 10 10 10 9 9 8 8 8 8 7 7 6 6 6 6 6 6 6 6 7 8 8 9 9 10 10 11 11 11 11 11 12 11 11 11 11 11 11 11 10 10 9 9 9 9 8 8 8 8 8 9 9 10 10 11 11 11 10 9 7 6 6 7 6 5 6 7 7 7 8 8 7 7 7 6 6 6 7 7 7 7 7 7 7 7 7 6 6 5 4 4 5 5 5 5 4 4 4 4 4 4 4
10 10 10 9 9 8 8 8 8 8 8 8 8 7 7 7 7 7 7 7 7 8 8 9 9 10 10 11 11 11 11 12 12 12 12 12 11 11 11 11 10 10 10 9 9 9 9 9 8 8 8 8 9 10 10 11 12 11 10 9 8 7 7 8 8 7 6 7 7 8 8 8 8 8 8 7 7 7 7 7 8 8 7 7 7 7 7 6 6 5 5 5 5 5 5 5 5 5 5 5 5 5 4
10 10 9 9 8 8 8 8 9 9 9 9 9 9 8 8 8 8 8 8 8 9 9 9 10 10 10 11 11 12 12 12 12 12 12 12 11 11 11 11 10 10 10 10 9 9 9 9 8 8 8 8 9 9 10 11 12 12 11 9 8 7 7 8 9 9 7 7 7 8 8 9 9 9 9 8 8 8 8 8 8 8 7 7 7 7 7 6 6 5 5 5 5 5 5 5 5 5 5 5 5 5 5
10 10 9 8 8 8 8 9 9 9 9 9 9 9 9 9 9 9 8 8 9 9 10 10 10 10 11 11 12 12 12 12 12 12 12 12 12 11 11 10 10 10 10 10 10 10 10 9 9 8 8 8 9 9 10 11 12 12 12 10 9 8 7 8 9 10 9 8 8 8 9 10 10 9 9 9 9 9 9 9 8 8 8 8 8 7 7 7 6 6 5 5 5 6 5 5 5 5 5 5 5 5 5
11 10 9 8 8 8 8 8 9 9 9 9 10 10 10 10 10 9 9 9 9 10 10 10 11 11 11 11 12 12 12 12 13 13 13 12 12 11 11 10 10 10 10 10 10 10 10 10 10 9 9 9 9 10 10 11 12 13 12 11 10 9 8 8 9 11 11 10 9 8 9 10 10 10 9 9 9 9 9 9 9 8 8 8 7 7 7 7 6 6 5 6 6 6 6 5 5 5 5 6 6 6 5
11 10 9 8 8 8 8 8 8 9 8 9 10 10 10 10 10 10 9 9 9 9 10 10 10 10 11 11 11 12 12 13 13 13 13 13 12 12 11 11 10 10 10 10 10 11 11 11 11 10 10 9 10 10 11 11 12 13 13 12 11 10 9 8 9 11 12 12 10 9 9 10 10 10 9 9 9 9 9 9 9 9 8 7 7 7 7 7 6 6 6 6 6 6 6 6 6 6 6 6 6 6 5
11 10 10 9 9 8 8 8 8 8 8 9 9 10 9 9 9 9 9 9 9 9 9 9 9 10 10 10 11 11 12 13 14 14 14 14 13 12 12 11 11 11 11 11 12 12 12 12 12 12 11 11 10 10 11 12 12 13 13 13 12 11 10 9 9 10 12 13 12 11 9 10 10 10 10 10 10 10 10 10 9 8 8 8 7 7 7 7 7 6 6 6 6 7 7 6 6 6 6 6 6 6 6
12 11 11 10 10 9 8 8 8 8 8 8 8 8 8 8 8 9 8 9 9 9 9 9 9 9 9 9 10 11 12 13 13 14 14 14 14 14 13 13 13 12 12 13 13 13 13 13 13 13 12 12 11 11 11 12 13 13 14 14 13 12 11 10 9 10 11 13 13 12 11 10 11 11 11 11 11 12 11 10 9 8 8 8 8 8 8 8 7 7 7 7 7 7 7 7 7 7 7 7 6 6 6
12 12 11 11 11 10 9 9 9 8 7 7 7 7 7 7 8 8 8 8 8 8 8 8 8 9 9 9 9 10 11 12 13 13 14 14 14 14 14 14 13 13 13 14 14 14 14 14 14 14 13 13 12 12 12 13 13 14 14 14 14 14 13 11 10 10 11 12 13 13 12 11 11 11 12 12 13 12 11 10 10 9 9 8 9 9 8 8 8 8 8 7 7 8 8 7 7 7 7 7 7 7 6
12 12 12 12 11 10 10 10 9 8 7 7 7 7 7 7 7 7 8 8 8 8 8 9 9 9 9 9 9 9 10 10 11 12 13 13 14 14 14 14 14 14 14 15 15 15 15 14 14 14 14 14 13 13 13 13 14 14 15 15 15 15 14 13 12 11 10 12 13 14 13 13 12 12 13 13 13 13 12 11 10 10 9 9 9 9 9 9 9 9 8 8 8 8 8 8 8 8 8 8 7 7 7
13 12 12 12 12 12 11 10 9 9 8 8 8 7 7 8 8 8 8 8 8 8 9 9 9 10 10 9 9 9 9 10 10 11 12 13 13 13 14 15 15 15 15 15 16 15 15 15 15 15 15 15 14 14 14 14 15 15 16 16 16 15 15 14 13 12 11 11 13 14 14 14 14 14 13 13 14 14 12 11 11 10 10 10 10 9 9 9 9 9 9 9 9 9 9 8 8 8 8 8 8 8 7
13 13 13 13 13 13 12 11 10 9 9 9 8 8 8 8 8 9 9 9 9 9 9 9 10 10 11 11 11 11 10 10 11 11 12 12 13 13 14 15 15 16 16 16 17 17 16 16 16 16 16 16 15 15 15 16 16 16 16 16 16 16 15 15 15 14 13 12 12 14 15 16 16 15 15 14 14 14 13 12 11 11 10 10 10 10 10 10 10 10 10 9 9 9 9 9 9 9 9 9 8 8 8
14 14 14 14 14 14 13 12 11 11 10 10 10 9 9 9 10 10 10 10 10 10 10 11 11 11 12 12 12 12 12 12 12 13 13 13 13 14 14 15 15 16 17 17 17 18 18 17 17 17 17 16 16 16 16 17 17 17 17 17 17 16 16 16 16 15 14 13 13 13 15 16 17 17 17 16 15 14 14 13 12 11 11 11 10 10 10 10 10 10 10 10 10 10 10 9 9 9 9 9 9 9 8
15 15 16 16 15 15 15 14 13 12 12 11 11 11 11 11 11 11 11 11 11 11 12 12 12 13 13 14 14 14 14 14 14 14 14 15 15 15 15 15 16 16 17 18 18 18 18 18 18 18 17 17 17 17 17 18 18 18 18 18 17 17 16 16 16 16 15 15 14 14 14 16 17 18 18 18 17 16 15 13 12 12 12 11 11 11 11 11 11 11 11 11 11 10 10 10 10 10 10 9 9 9 9
16 17 17 17 17 17 16 15 14 13 13 13 13 12 12 12 12 12 12 13 13 13 13 13 14 14 15 15 15 15 15 16 16 16 16 16 16 16 16 17 17 17 18 18 19 19 19 19 19 19 19 18 18 18 18 19 19 19 19 18 18 17 17 17 16 16 16 16 15 15 15 15 17 18 19 19 19 17 16 15 14 13 13 13 12 12 12 12 12 11 11 12 11 11 11 11 10 10 10 10 10 10 10
17 18 19 19 18 17 16 15 15 14 15 15 14 14 14 14 14 14 13 14 14 14 14 15 15 16 16 16 17 17 17 17 17 18 18 18 18 18 18 18 18 18 18 19 19 20 20 20 20 20 20 20 20 20 20 20 20 20 19 19 18 18 18 17 17 17 16 16 16 16 16 16 16 17 18 19 19 19 18 17 16 15 14 13 13 13 12 12 12 12 12 13 13 13 13 12 12 11 11 11 11 10 10
18 18 19 19 19 17 16 15 15 15 15 16 16 16 15 15 15 15 15 15 15 15 15 16 17 17 18 18 18 18 18 18 19 19 19 19 19 19 19 19 19 19 19 20 20 21 21 21 21 21 21 21 21 21 21 21 21 21 20 20 19 19 19 18 18 17 17 17 17 17 17 17 17 17 17 18 19 20 20 19 18 17 16 15 14 13 13 13 13 13 14 14 14 14 14 13 13 12 12 12 11 11 11
19 19 19 19 19 17 16 15 15 15 16 16 17 17 17 17 17 16 16 17 17 17 16 16 17 18 19 19 20 20 20 20 20 20 20 20 20 20 20 20 20 20 20 21 21 21 22 22 22 22 23 23 23 23 23 23 22 22 21 20 20 20 19 19 19 19 18 18 17 17 17 17 17 17 17 18 19 19 20 20 20 20 19 17 16 15 14 14 14 14 14 14 15 15 15 14 14 13 13 13 12 12 12
20 19 19 19 18 18 17 16 16 16 16 16 17 17 17 17 17 17 18 18 18 18 18 17 17 18 19 20 20 21 21 21 21 21 21 21 21 21 21 21 20 20 20 21 21 22 22 23 23 23 24 24 24 24 24 24 23 23 22 21 21 21 20 20 20 20 19 19 18 18 18 18 18 18 18 18 18 19 19 20 21 21 21 20 18 16 15 15 15 15 15 15 15 15 15 15 15 14 14 14 13 13 14
20 19 19 19 18 18 18 17 17 17 17 17 17 17 18 17 17 18 18 19 19 19 19 18 18 18 18 19 20 21 21 22 22 22 22 22 22 22 21 21 20 20 20 20 21 21 22 23 23 24 24 25 25 25 25 25 24 23 23 22 22 22 22 22 21 21 21 20 20 19 19 18 18 18 18 18 18 18 19 19 20 20 21 21 20 18 17 16 15 15 16 16 16 16 16 16 15 15 15 14 14 14 15
19 20 20 19 19 19 19 18 18 18 18 18 18 18 18 18 18 18 18 19 19 19 19 19 19 19 19 19 20 20 21 21 21 21 21 21 21 21 21 20 20 19 19 19 20 20 21 22 22 23 24 24 25 25 25 25 25 24 24 23 23 23 23 23 23 22 22 21 21 20 20 19 19 19 19 19 19 19 19 19 20 20 20 21 21 20 18 17 17 16 16 16 17 17 17 16 16 16 16 15 15 15 15
19 19 20 20 20 19 19 19 19 19 19 18 19 19 19 19 19 19 19 19 19 19 19 19 20 20 20 20 20 20 20 20 20 20 20 20 20 20 20 19 19 18 18 18 19 19 20 20 21 22 23 23 24 24 25 25 25 25 24 24 24 24 24 24 24 24 23 22 22 21 21 20 20 20 19 19 19 19 19 19 20 20 20 21 21 20 20 19 18 17 17 17 17 17 17 17 17 16 16 16 16 15 15
19 19 20 20 20 19 19 19 19 19 19 19 19 19 20 20 20 19 19 19 20 20 19 19 20 20 21 21 20 20 19 19 19 19 19 19 19 18 18 18 18 18 18 18 18 18 18 19 19 20 21 21 22 22 23 23 24 24 25 25 25 25 25 25 25 25 24 23 23 22 22 21 21 20 20 20 20 20 20 20 20 20 21 21 21 21 20 19 19 18 18 17 17 17 18 18 17 17 17 16 16 16 16
19 19 20 20 20 20 19 19 19 20 20 20 20 20 20 20 20 20 20 20 20 20 20 19 19 20 20 20 20 19 18 18 17 17 16 16 17 17 17 17 18 17 17 16 16 16 16 16 17 18 18 19 20 20 20 21 21 22 23 23 23 24 25 25 25 25 24 24 24 23 23 22 22 21 21 21 20 20 20 20 20 20 21 21 21 21 21 20 19 19 18 17 17 17 18 18 18 18 17 17 17 16 16
19 19 20 20 20 20 20 20 20 20 20 21 21 21 21 21 20 20 20 20 20 20 20 19 19 18 19 19 19 18 17 15 14 13 12 12 13 15 17 16 16 15 14 13 13 13 14 15 16 17 17 17 17 18 18 18 19 19 20 20 21 21 22 23 23 23 23 24 24 24 24 23 23 22 22 21 21 21 21 21 21 21 21 21 21 22 22 21 20 19 19 18 17 17 18 18 18 18 18 17 17 16 16
19 20 20 20 20 21 21 21 21 21 21 22 22 22 22 21 21 21 20 20 19 18 17 16 17 17 16 17 17 16 14 12 11 10 10 11 10 10 11 12 12 12 12 12 12 13 14 14 15 16 16 16 16 16 16 16 17 17 17 18 18 19 19 20 21 21 22 23 23 24 24 24 23 23 23 22 22 22 22 22 22 22 22 22 22 22 22 22 21 20 20 19 18 18 18 18 18 18 18 17 17 16 16
20 21 21 21 21 22 22 22 22 22 22 22 22 22 21 21 21 20 20 18 17 15 13 12 12 13 14 14 14 14 12 12 11 9 7 8 9 8 6 7 9 11 12 12 12 12 12 13 14 14 14 14 14 14 14 14 15 15 15 16 17 17 18 18 19 19 20 21 22 22 23 23 23 23 23 23 23 23 23 23 23 23 23 22 22 22 22 22 22 21 20 20 19 18 18 18 18 18 18 18 18 17 16
22 22 22 22 22 23 23 23 23 23 22 22 21 21 21 20 20 19 17 16 14 14 13 11 11 11 11 12 12 12 12 13 12 11 9 9 9 10 8 6 4 4 3 7 8 9 10 10 11 12 12 12 12 12 12 13 13 14 14 15 15 16 17 17 18 18 18 18 19 19 20 21 21 22 23 24 24 24 24 24 24 24 24 24 23 23 22 22 22 22 21 20 20 19 18 18 18 18 18 18 18 18 17
23 23 23 23 23 23 23 23 23 23 21 20 19 18 18 17 16 15 14 14 13 13 13 13 12 11 10 10 10 11 12 12 12 12 11 11 10 8 6 2 1 2 1 2 3 5 7 7 8 9 9 9 10 10 11 12 12 13 13 14 14 15 15 15 15 15 15 15 15 15 16 16 18 19 20 22 23 23 24 24 24 25 25 24 24 24 23 23 22 22 21 21 20 20 20 19 18 18 18 18 18 18 17
24 25 25 25 25 24 24 24 23 21 19 17 15 14 13 12 12 11 12 12 13 13 13 14 13 13 11 11 10 10 10 10 10 10 11 12 11 7 2 1 1 2 1 1 1 3 3 3 4 5 7 8 9 10 11 11 11 11 12 12 12 12 13 13 13 13 13 13 13 13 13 14 15 16 18 19 20 21 22 23 24 24 25 25 25 25 24 24 23 23 22 21 21 21 21 20 19 18 18 17 17 17 17
25 25 25 25 25 25 25 23 21 19 17 16 15 14 13 12 12 12 12 12 12 13 13 14 14 14 13 13 13 12 11 11 11 10 10 11 12 11 5 2 1 1 2 1 1 2 2 2 3 5 8 8 8 8 9 9 9 9 9 10 11 11 12 13 13 14 14 14 14 15 15 16 17 17 18 18 19 20 20 21 22 23 24 24 25 25 25 25 24 24 23 22 21 21 21 21 20 19 18 18 17 17 16
25 25 25 26 26 26 25 24 22 20 18 18 17 17 16 15 15 14 14 14 14 13 13 13 14 14 15 15 16 15 14 12 12 11 10 11 13 14 13 7 3 1 1 0 1 3 2 1 3 4 5 4 4 4 6 7 8 9 10 11 13 14 15 16 16 16 17 17 17 17 18 19 19 19 19 19 19 19 20 20 21 22 22 23 24 24 24 25 25 25 24 23 22 21 20 20 20 19 19 18 18 18 18
25 25 25 26 26 26 25 24 23 22 22 21 20 19 18 17 16 16 16 16 16 15 15 14 14 14 16 17 17 17 16 14 13 13 12 11 12 14 16 15 11 6 5 3 2 1 1 2 2 1 3 4 4 5 7 9 11 12 13 14 14 15 16 17 17 18 18 18 19 19 19 20 19 19 19 19 19 19 19 20 20 21 22 22 23 23 24 24 25 25 25 24 23 22 20 19 18 17 17 17 18 20 20
25 26 26 26 26 25 25 25 25 25 24 23 22 21 19 18 17 17 17 17 17 17 16 15 14 13 14 15 17 17 17 16 15 14 13 12 12 13 15 17 18 18 16 11 8 5 3 1 1 1 3 6 9 10 9 10 11 12 13 13 14 14 15 17 18 19 19 20 20 20 20 19 19 18 18 18 18 19 19 19 20 20 21 22 22 23 23 24 25 25 25 25 24 23 22 21 20 18 16 17 18 20 20
26 26 26 26 25 25 25 25 25 25 25 25 24 23 21 20 19 18 18 18 18 18 18 16 15 13 12 13 16 17 17 18 17 15 13 12 12 13 14 15 17 18 19 20 18 14 9 4 2 2 2 3 6 9 9 9 10 11 12 13 14 15 17 18 19 20 20 20 20 20 20 19 18 18 18 18 18 18 18 19 19 20 21 21 22 23 23 24 24 25 25 25 25 25 25 25 24 23 21 21 21 20 20
26 27 26 26 25 25 24 24 24 25 25 25 25 24 23 22 21 19 18 17 17 18 17 17 15 13 11 12 15 17 18 19 18 16 14 11 12 13 15 15 16 18 18 19 20 19 17 13 9 5 2 2 3 4 7 9 11 11 12 14 15 16 17 18 19 19 19 19 19 19 19 19 18 18 18 18 17 17 18 18 19 20 21 21 22 22 23 23 24 24 25 25 25 26 26 27 27 27 26 24 23 21 20
26 26 26 26 25 24 23 23 24 24 25 25 25 25 24 23 22 20 18 17 17 17 17 16 15 13 11 11 13 15 17 17 17 16 16 14 13 13 14 15 16 17 17 18 18 18 17 17 16 14 9 4 3 3 3 6 9 11 12 13 13 14 15 16 17 18 18 19 19 19 19 19 18 18 17 17 17 17 17 18 19 19 20 21 22 22 22 23 23 24 24 25 25 26 27 28 28 28 27 25 24 22 21
Wind_Direction
111 117 119 119 118 116 116 115 114 114 114 118 121 122 123 124 124 124 124 126 127 128 127 126 123 120 116 111 106 103 103 106 110 112 111 110 107 103 100 99 98 97 95 92 89 85 81 77 76 77 81 84 86 87 88 88 88 86 83 77 71 66 59 44 39 47 55 66 67 62 55 54 47 37 34 51 67 84 91 95 95 89 85 91 90 84 74 68 66 65 63 66 71 74 74 72 68 67 70 79 82 79 74
115 120 122 123 122 120 118 118 118 118 120 123 124 125 126 126 126 126 126 128 130 130 129 128 125 121 116 109 103 101 102 105 109 112 113 111 107 103 98 97 95 94 92 90 86 83 77 74 73 74 78 81 83 86 87 89 90 89 85 82 78 73 68 57 49 51 58 66 72 71 58 53 48 43 41 54 67 80 93 103 98 89 85 87 88 85 78 72 69 69 67 70 73 75 75 73 71 70 74 84 89 86 79
120 124 126 125 123 121 120 122 123 123 125 127 129 129 129 128 128 128 129 131 132 133 132 130 127 122 115 108 101 99 101 105 110 113 114 113 109 104 99 96 95 93 91 89 85 81 76 73 71 72 75 77 81 83 86 89 91 91 89 86 83 79 71 61 54 54 57 62 67 66 55 50 51 50 43 48 59 71 84 92 91 88 88 88 88 86 82 77 74 74 74 75 76 75 73 69 68 69 75 86 92 93 86
123 128 128 125 123 121 123 126 128 129 130 132 133 133 132 131 131 131 132 134 135 135 134 133 129 123 115 107 101 99 102 106 111 115 117 116 113 108 103 99 96 94 91 88 83 79 75 74 72 71 72 74 76 80 84 88 92 93 91 87 84 80 75 69 65 60 53 50 54 55 50 50 56 58 51 47 55 64 73 81 86 89 93 95 95 93 86 81 77 76 76 75 77 77 75 69 68 71 74 83 89 93 90
128 131 130 127 125 125 128 131 132 133 134 135 136 136 136 135 135 135 136 137 138 138 137 136 131 124 116 107 102 100 103 108 113 116 120 121 120 116 110 105 101 98 93 89 83 78 75 74 73 71 70 69 72 75 80 86 92 95 94 89 82 76 71 67 67 64 54 47 50 54 55 57 65 68 60 51 54 62 70 77 83 87 91 95 98 98 92 85 80 77 76 78 80 81 79 74 73 75 77 83 86 88 89
132 132 132 130 130 131 134 135 136 137 138 139 140 140 140 139 139 139 140 141 141 141 141 138 134 127 118 110 104 101 104 108 112 117 123 126 127 124 119 114 108 103 97 91 85 79 75 73 72 70 67 66 66 69 75 83 91 95 94 89 79 69 58 51 53 56 59 51 51 54 59 66 80 82 70 58 53 56 62 73 81 85 87 89 91 92 91 86 82 80 79 78 77 76 78 80 85 88 89 93 90 85 82
136 136 136 135 135 136 137 138 140 141 142 143 143 144 144 144 144 143 143 144 144 145 144 141 136 130 121 112 105 102 102 106 110 116 123 128 131 130 126 121 114 108 101 95 89 83 78 73 70 67 65 62 61 62 68 77 86 90 88 83 76 67 49 38 38 47 57 55 56 58 57 65 86 93 82 71 61 58 61 68 78 84 87 84 84 86 85 83 81 79 77 75 72 71 73 79 86 93 98 99 97 89 79
142 142 141 141 141 140 139 140 143 146 147 147 148 148 149 149 148 148 148 148 148 148 148 145 140 134 125 115 107 101 99 102 107 115 122 128 132 132 130 125 119 112 104 97 92 86 80 72 67 63 60 56 54 53 55 66 78 85 85 80 76 67 50 46 47 48 45 53 61 63 59 56 71 85 89 80 71 68 70 72 77 82 84 81 80 80 77 72 70 70 71 71 68 65 65 67 78 88 93 99 101 100 98
149 149 147 147 145 143 142 143 147 150 151 151 152 153 154 154 154 154 153 153 153 153 153 150 146 139 131 120 111 103 99 100 106 114 121 126 130 131 130 127 122 115 107 100 94 88 80 70 62 56 50 47 45 42 42 49 65 81 89 85 79 69 54 47 47 44 37 33 48 60 55 49 47 62 80 87 85 81 81 82 82 82 80 80 79 75 67 57 50 43 39 38 35 33 32 30 33 62 94 100 102 109 112
155 155 153 153 150 146 143 145 149 153 155 155 156 157 158 159 160 160 159 160 160 160 159 157 154 148 139 128 118 110 104 104 108 114 120 125 128 129 129 128 124 118 111 104 97 89 80 67 54 44 37 37 35 32 31 32 45 76 96 95 84 69 54 49 43 34 26 19 28 48 51 41 32 33 41 77 92 93 89 86 84 82 77 71 64 53 38 26 17 9 4 358 353 346 335 322 300 267 210 161 132 122 117
161 161 160 159 154 148 144 146 152 156 158 159 160 161 163 164 165 165 166 166 166 166 166 166 164 158 151 141 130 121 115 113 116 120 124 126 128 129 128 128 126 122 116 108 101 89 77 60 42 30 25 26 26 24 22 19 19 42 99 106 88 63 51 42 36 27 14 8 9 19 43 58 49 14 0 27 69 80 84 76 66 61 54 43 31 17 4 358 355 353 350 346 341 335 327 314 294 266 234 225 208 166 138
166 166 166 161 154 150 148 150 155 159 161 162 163 164 165 168 169 170 171 172 173 174 174 175 174 171 166 158 147 137 131 128 129 132 133 133 132 132 132 132 130 127 122 114 101 85 64 42 23 15 13 16 18 17 15 10 0 347 337 104 92 57 33 27 23 15 6 356 346 337 1 71 1 316 349 14 15 30 55 50 40 34 28 21 15 10 5 1 358 354 350 346 342 337 330 318 300 275 246 233 223 207 188
170 171 171 159 151 151 153 156 160 163 164 166 167 167 168 170 172 174 175 177 179 181 182 183 183 183 180 175 167 157 149 147 147 148 146 144 142 141 141 141 141 140 136 124 101 60 28 10 1 0 3 6 8 10 10 6 355 340 324 314 1 24 355 357 0 0 358 357 352 348 1 131 266 285 314 32 69 62 38 34 28 19 7 3 4 5 4 1 358 353 348 345 340 335 329 321 311 291 265 244 230 220 206
176 177 176 160 151 154 162 163 164 167 168 169 170 172 173 174 175 177 179 181 184 186 188 190 191 191 191 189 186 177 168 166 166 166 162 157 155 155 155 157 159 160 159 160 143 346 344 344 346 349 353 357 2 5 6 4 357 344 328 315 325 0 342 336 336 341 347 348 351 3 97 153 206 256 276 260 99 49 352 7 10 357 353 351 352 353 353 353 350 347 344 341 338 335 331 327 320 307 288 261 241 224 205
185 187 185 164 158 164 172 173 172 171 171 171 174 177 179 180 181 182 184 187 190 192 194 195 197 198 198 199 198 192 184 181 182 184 179 172 168 167 172 176 179 183 187 204 248 300 320 329 335 340 345 351 356 0 2 2 358 349 333 317 317 341 337 318 317 329 336 345 352 351 214 152 175 225 243 219 239 274 302 332 348 347 349 348 347 347 346 345 344 342 341 340 339 338 339 339 337 332 321 292 261 234 208
190 192 193 168 160 168 176 180 177 173 172 173 176 181 184 185 187 189 191 194 197 198 200 201 203 204 205 206 206 203 197 192 193 196 195 187 181 180 185 193 199 206 212 229 257 287 308 320 328 334 339 346 351 355 358 359 358 352 338 320 309 323 336 309 307 319 329 340 344 307 276 295 302 225 227 211 227 268 305 330 339 343 342 343 342 340 339 339 339 338 339 341 343 345 347 349 350 351 346 333 307 246 203
187 184 169 97 92 137 168 179 177 173 172 174 178 183 187 190 192 195 197 200 202 204 206 207 209 210 211 212 213 212 208 202 200 203 205 201 197 196 201 207 215 223 232 245 262 281 299 312 322 329 335 341 346 351 353 355 355 351 342 322 301 299 327 302 298 308 319 329 324 281 265 273 242 215 220 222 240 274 299 322 331 333 331 332 333 333 334 335 336 337 337 339 342 344 345 348 349 353 356 356 347 316 208
189 191 191 173 136 129 150 166 171 172 172 174 178 184 189 194 197 200 203 205 207 209 211 213 214 216 216 217 218 219 217 212 209 208 210 210 208 209 214 220 227 233 240 250 262 275 289 302 313 323 329 336 340 344 346 348 350 349 342 324 293 272 309 302 296 299 312 323 320 284 260 264 237 217 211 220 244 267 285 307 319 323 323 324 327 330 332 333 335 335 334 335 336 337 337 339 343 346 353 357 358 357 1
195 200 204 203 191 171 164 166 170 172 173 176 180 185 191 196 201 205 207 210 212 214 216 217 219 220 220 221 223 224 223 221 217 215 215 215 215 217 221 226 232 236 243 250 259 269 281 293 304 314 323 329 333 337 340 342 344 344 341 327 291 255 268 298 295 294 304 318 322 310 275 288 266 240 227 232 253 267 277 292 308 315 320 323 325 328 330 332 333 331 329 329 329 328 329 331 334 337 346 353 357 0 8
200 204 208 209 208 202 192 186 184 182 182 182 186 190 194 199 202 206 210 213 216 218 219 221 221 223 224 225 227 228 228 226 224 221 219 219 219 220 223 229 233 237 242 248 256 265 276 286 298 308 316 322 327 331 334 335 338 339 338 328 297 253 244 282 290 290 299 309 319 323 302 297 281 258 247 242 249 260 272 284 297 309 318 323 324 327 328 331 330 327 325 322 321 320 320 322 324 328 335 340 344 346 352
205 210 213 214 214 212 209 205 202 198 196 196 198 197 199 201 204 207 211 215 218 221 222 223 224 226 228 230 231 232 231 231 229 226 224 223 222 223 225 229 234 238 242 248 254 263 274 284 294 304 312 318 323 326 329 331 332 333 333 328 303 261 242 263 279 285 294 302 311 315 302 288 278 265 249 241 244 253 265 278 291 303 314 320 323 325 328 329 329 325 320 317 315 313 312 316 317 319 323 325 327 328 328
212 218 222 223 222 219 216 213 211 210 209 209 209 208 205 206 208 211 214 217 220 223 225 226 227 229 231 233 235 235 235 234 233 230 228 226 225 225 226 230 235 240 243 248 254 263 273 284 294 302 310 316 320 324 326 328 329 330 329 326 308 271 245 247 264 279 291 298 303 304 298 285 275 264 248 241 242 250 262 274 287 301 311 317 319 322 325 326 325 321 315 312 307 306 307 310 314 315 315 315 314 313 314
220 226 231 234 232 229 224 220 217 217 217 217 219 217 214 213 214 216 217 220 223 226 227 228 229 231 234 236 237 238 237 237 235 234 231 230 229 228 229 232 237 242 246 251 256 263 273 283 292 301 309 314 319 322 325 327 327 328 327 325 312 281 251 242 253 274 284 292 296 296 293 284 274 261 248 245 246 253 264 276 289 300 309 313 315 318 321 322 321 317 309 303 301 300 301 303 307 308 309 310 309 306 306
229 234 238 240 239 236 230 226 224 223 223 224 226 226 223 221 221 222 222 224 226 227 228 228 229 231 234 236 238 239 238 238 237 236 234 232 232 231 231 234 237 243 249 253 258 265 272 281 291 299 306 312 317 321 325 327 328 328 326 323 313 289 257 243 248 265 275 284 289 290 288 280 270 258 248 246 250 257 268 279 289 297 304 308 311 313 316 318 317 312 303 296 293 292 293 296 300 303 305 305 304 302 301
235 238 241 241 240 238 233 230 228 228 228 231 233 234 232 230 229 230 230 230 231 231 231 230 230 231 233 235 237 238 238 239 238 237 236 235 234 234 234 235 239 244 250 255 260 266 272 280 289 297 305 310 315 320 325 328 330 329 327 323 314 295 265 248 245 254 267 276 280 283 285 280 269 256 247 248 254 263 271 280 287 293 300 303 306 308 311 312 311 306 296 289 286 285 287 289 293 296 298 299 298 298 298
237 238 239 239 239 238 235 234 234 234 234 236 238 240 240 238 237 237 237 238 238 237 236 234 233 233 233 235 236 237 238 238 237 237 236 236 236 236 237 238 240 244 249 255 261 267 273 279 286 294 301 308 314 320 325 329 331 331 329 324 316 300 275 254 246 247 260 269 274 278 281 277 267 256 251 255 260 266 272 278 284 289 294 298 301 304 307 306 305 300 291 284 279 279 281 284 286 288 290 291 292 293 294
234 234 234 234 236 237 238 239 239 240 240 242 243 245 245 244 243 242 243 244 244 243 241 239 237 236 236 236 236 236 237 237 237 236 235 235 235 236 238 239 241 244 249 255 261 267 273 278 284 291 298 305 312 318 324 328 331 332 331 326 318 304 284 261 249 247 251 261 269 275 277 271 262 255 254 257 261 266 271 276 281 285 291 295 298 300 302 300 297 293 286 279 276 274 276 277 280 281 282 283 285 287 288
227 227 228 230 233 236 240 242 244 246 246 247 249 250 250 249 248 248 248 249 250 248 246 244 242 240 239 238 237 236 236 236 236 235 234 234 234 235 237 239 242 245 249 254 260 266 272 276 281 287 294 301 308 315 320 325 329 331 331 327 320 309 293 270 255 249 248 253 263 270 273 268 259 252 250 257 262 266 272 275 278 282 288 293 295 296 296 295 292 287 280 275 272 271 271 272 273 275 276 277 279 281 282
221 221 223 227 231 236 241 245 248 250 252 253 254 255 254 253 253 252 252 254 255 255 252 249 246 244 243 242 240 239 238 237 235 234 233 233 234 235 238 242 244 248 251 256 260 265 270 275 279 284 289 296 303 309 315 321 325 328 329 327 321 313 300 281 264 253 249 249 255 264 269 267 258 249 247 256 262 267 271 272 275 280 284 287 289 291 291 288 286 282 276 271 269 268 267 267 269 271 272 273 274 276 277
219 220 223 227 232 238 243 249 253 256 257 258 260 260 259 258 257 257 257 259 260 260 258 254 251 249 248 247 247 245 242 239 237 236 234 234 235 238 241 246 250 254 257 260 263 267 270 273 276 280 285 290 296 301 307 315 320 325 327 325 322 316 306 292 274 260 253 250 250 255 263 263 257 250 248 253 260 266 268 269 272 276 279 281 282 282 282 281 279 276 273 268 265 265 265 265 265 267 269 271 272 272 271
222 223 228 232 238 242 247 253 258 260 261 261 263 265 266 265 263 261 262 264 265 265 264 261 258 256 255 255 254 252 248 245 242 239 237 237 239 243 247 253 257 261 265 267 269 270 271 271 273 276 280 285 289 295 301 308 315 321 324 323 321 317 311 301 284 268 257 252 249 251 258 259 255 251 252 263 270 271 268 268 268 270 274 277 277 277 278 276 273 271 269 265 263 262 262 262 263 264 266 268 271 272 269
227 231 235 240 244 248 252 257 261 263 263 264 267 271 275 273 269 267 267 268 269 270 268 265 263 262 262 261 260 258 255 251 248 245 243 243 244 248 253 258 262 266 269 271 272 272 272 272 272 275 278 281 285 289 295 302 310 316 320 321 319 316 312 306 294 277 263 257 253 251 254 256 256 255 256 262 272 276 271 264 262 264 268 271 274 277 279 276 272 268 264 263 261 259 259 259 260 262 264 265 269 271 269
234 238 242 245 249 252 255 258 262 266 268 269 272 278 281 280 277 275 273 273 274 274 270 266 264 263 264 265 265 263 261 257 254 251 250 249 251 254 257 261 265 269 272 273 273 273 273 273 273 275 279 281 284 288 292 298 305 312 316 317 317 314 311 308 301 287 271 261 257 254 251 252 254 256 258 266 273 274 267 261 260 262 263 268 274 277 275 274 272 268 261 259 258 258 258 257 258 259 261 263 265 266 265
238 243 246 250 253 255 256 258 262 266 270 272 275 279 282 282 282 280 277 276 276 275 272 268 265 263 265 266 267 267 264 262 259 258 257 256 258 260 262 265 268 271 273 274 275 276 276 276 277 279 281 283 285 288 290 295 301 306 310 313 313 312 309 307 304 296 281 267 260 257 255 252 253 256 259 264 269 270 264 257 257 260 263 268 269 269 270 271 270 266 261 259 258 258 258 257 257 258 259 261 262 261 260
243 247 250 253 255 256 256 259 262 265 268 272 275 278 281 281 281 280 278 277 277 276 274 272 269 267 266 267 268 268 268 266 263 262 262 263 264 266 268 270 271 273 275 277 278 279 279 279 280 281 283 284 286 287 289 293 297 301 305 308 309 309 307 305 303 300 292 277 265 261 259 254 252 253 258 261 266 268 263 257 256 258 262 265 266 266 268 268 266 262 260 259 256 256 257 256 257 258 259 261 260 257 256
247 251 254 256 257 257 258 260 262 264 265 268 272 276 278 279 279 278 277 276 276 277 277 276 274 272 271 270 270 270 270 269 267 266 266 267 268 270 271 272 274 275 276 278 280 281 281 282 282 282 282 283 285 287 288 291 294 297 300 303 304 305 304 303 302 300 297 288 275 265 260 257 254 254 257 259 263 265 263 259 258 259 261 263 264 266 267 268 267 263 258 257 255 256 257 256 257 259 260 261 260 258 253
250 254 256 258 259 259 259 260 261 263 264 266 269 272 274 276 277 276 276 276 276 277 278 277 277 276 275 273 272 272 272 271 270 270 270 271 272 272 272 273 274 275 276 277 279 280 281 282 282 281 280 281 283 285 287 289 292 294 296 298 300 300 301 301 300 299 298 294 285 273 264 260 259 258 257 258 259 262 263 262 261 260 262 263 264 264 264 265 265 262 258 255 253 254 258 258 258 258 259 261 262 259 254
254 256 258 259 260 259 259 260 261 262 263 264 266 268 271 274 275 276 276 276 276 276 276 276 276 276 276 275 275 275 274 273 272 273 274 274 275 274 275 275 275 274 275 276 277 278 280 281 281 280 279 279 280 282 285 287 289 291 293 294 295 296 296 297 297 297 296 295 290 282 273 266 263 261 260 259 259 260 261 261 261 262 263 265 266 266 264 264 264 262 259 256 253 254 258 259 258 257 258 259 261 260 256
257 259 260 261 261 261 261 262 262 262 262 262 263 265 269 271 273 275 276 276 277 277 275 274 275 275 275 275 275 275 275 274 274 275 277 277 277 277 277 277 276 275 275 275 275 276 278 279 279 278 277 277 278 280 283 284 286 288 289 290 291 291 292 292 293 294 294 294 293 290 284 275 268 264 263 262 262 261 261 261 262 263 264 267 268 268 267 268 267 265 263 261 259 260 261 260 260 259 258 258 259 260 258
260 261 262 263 264 265 265 265 264 263 263 262 262 264 266 268 270 273 276 278 279 278 277 276 276 276 276 276 275 275 275 274 275 275 277 277 278 279 279 278 278 277 276 275 275 275 277 278 278 278 277 277 277 279 280 282 284 286 286 287 287 288 288 288 288 289 291 292 293 292 290 284 276 270 266 265 264 262 261 261 262 262 264 266 268 269 270 271 270 268 268 268 267 268 268 265 264 265 263 259 258 258 258
261 262 263 264 266 268 269 269 268 266 265 264 263 264 265 267 269 273 276 278 279 280 280 280 279 279 279 279 278 277 276 275 275 275 276 277 278 279 279 279 279 278 277 276 276 276 276 277 277 277 277 276 276 277 278 281 283 284 285 285 285 285 285 285 285 285 287 288 289 290 290 288 283 277 271 268 265 264 263 262 262 262 263 264 267 269 270 271 272 272 272 272 271 269 268 267 268 268 268 264 261 259 259
261 262 264 265 268 271 272 272 272 270 268 266 266 265 266 267 270 273 275 277 278 280 281 282 282 282 283 283 282 281 280 278 277 276 276 277 277 278 279 280 280 279 278 277 276 276 276 277 277 277 276 276 275 275 277 279 281 282 283 283 283 283 283 282 282 282 283 284 285 287 288 288 286 282 277 272 269 266 264 263 263 263 263 264 266 268 269 271 272 273 272 273 272 270 268 267 268 269 269 268 265 263 263
261 263 264 266 269 272 274 275 274 273 271 269 268 267 267 269 271 274 275 275 277 278 279 281 282 283 284 284 284 283 283 281 280 279 278 278 278 279 280 280 281 280 279 278 277 277 277 277 277 276 276 275 275 275 277 278 279 280 281 282 282 282 281 280 279 279 280 281 282 283 284 285 285 283 280 277 273 269 266 265 264 264 264 265 266 267 268 270 271 272 273 273 272 270 268 267 267 268 269 269 267 266 267
262 264 266 268 270 273 275 276 276 275 273 271 270 270 270 271 272 273 274 275 276 277 279 281 281 280 280 281 283 284 284 284 283 282 281 280 280 280 280 280 281 280 280 279 278 278 277 277 277 276 276 275 275 276 277 278 278 279 280 281 281 280 279 279 278 277 277 278 279 280 281 282 282 282 281 279 276 273 270 267 266 265 265 265 265 266 267 268 270 271 272 273 273 272 270 268 267 268 268 269 268 267 267
262 264 267 269 271 272 274 275 276 275 274 273 272 272 272 272 272 272 273 275 276 278 279 282 282 279 277 277 279 282 284 285 285 284 283 282 281 281 280 280 280 279 279 279 279 279 279 278 278 277 277 277 277 277 278 278 278 279 280 280 280 280 279 279 277 276 276 276 277 278 279 280 281 280 280 279 277 275 273 270 268 266 266 265 265 265 265 265 267 269 270 272 273 273 272 271 270 269 269 269 268 266 266
262 264 266 269 271 272 274 275 275 275 274 273 273 272 272 272 271 271 272 274 275 277 279 281 282 281 278 276 276 278 281 284 286 285 283 282 281 281 280 280 280 280 280 280 281 281 281 281 280 280 279 279 279 279 279 280 280 280 280 281 281 281 280 280 278 276 276 276 276 277 278 279 280 280 279 278 277 276 275 274 271 268 267 266 265 265 265 266 267 267 269 271 273 274 274 273 272 271 270 269 268 266 264
262 264 265 268 271 273 275 275 274 273 272 272 271 270 270 271 271 272 272 274 274 276 278 279 279 279 279 277 275 274 276 280 282 283 283 283 282 282 282 283 283 283 283 284 285 285 284 283 282 282 282 282 282 282 282 282 282 282 282 283 283 283 282 281 280 278 277 276 276 276 277 278 279 279 279 278 278 277 276 275 273 271 269 267 266 266 267 269 270 269 268 269 271 272 273 273 273 273 272 271 270 268 264
262 264 266 269 271 273 274 274 273 272 270 269 268 268 269 270 271 272 274 275 275 276 277 277 277 277 278 277 275 274 274 277 279 281 280 282 283 283 284 286 287 287 288 288 289 288 287 285 284 284 284 285 285 285 285 285 284 284 285 285 285 284 284 283 282 280 279 277 276 276 276 277 278 279 279 278 278 277 276 275 274 272 270 269 267 267 267 269 270 269 266 266 267 269 270 272 272 272 272 272 271 270 267
262 264 266 268 270 271 272 272 271 270 269 268 267 268 270 271 272 273 275 274 274 274 275 274 273 273 273 273 273 273 274 275 277 278 277 278 282 285 286 287 289 290 291 291 291 290 288 287 287 287 287 287 287 287 287 286 286 286 287 287 286 286 286 286 285 284 282 280 278 277 277 277 278 278 279 279 278 277 276 275 274 273 272 270 269 267 266 266 267 268 266 264 264 265 266 268 269 270 270 270 270 270 269
261 263 265 266 268 269 270 270 270 270 269 268 269 270 272 272 272 272 272 270 269 269 270 271 272 272 271 270 270 270 270 269 267 268 271 271 275 283 290 292 293 293 292 291 290 288 286 286 287 287 287 287 287 287 287 287 287 287 287 287 287 288 289 289 289 288 285 283 281 280 279 278 279 279 279 279 279 278 277 276 274 273 272 270 269 268 267 266 266 266 266 264 263 263 263 265 265 266 267 267 267 267 266
260 262 264 265 266 267 268 268 269 269 269 270 271 271 271 270 270 269 266 264 263 265 266 271 275 276 275 271 269 268 265 261 258 258 263 267 266 265 273 293 301 301 296 294 289 285 283 283 284 285 285 285 285 285 285 286 286 286 286 286 287 289 290 291 292 291 289 288 286 285 283 282 282 281 281 281 280 279 278 276 275 273 272 270 269 268 267 267 266 266 266 266 265 263 262 262 263 263 263 264 264 264 263
260 261 263 264 265 266 267 267 268 268 268 269 269 270 270 270 268 266 263 262 262 263 266 269 272 275 275 272 270 267 264 263 262 259 254 260 265 264 261 280 302 317 325 314 303 293 287 281 280 279 278 278 280 282 283 284 283 283 284 285 286 288 290 291 292 292 291 291 291 291 290 289 288 286 285 284 282 281 280 278 276 274 272 270 269 268 267 267 266 265 265 266 266 265 262 261 261 261 260 260 262 263 263
260 261 262 263 264 265 266 267 267 268 267 267 268 270 273 273 272 270 268 266 266 267 269 269 269 269 270 268 267 266 266 268 269 266 259 254 252 253 258 260 262 258 267 337 326 308 297 281 273 270 269 272 277 280 282 281 281 281 282 283 284 287 289 290 291 291 291 293 295 297 298 298 296 294 291 288 286 285 283 280 278 276 273 271 269 268 267 266 265 265 264 265 267 267 265 261 258 258 258 258 259 260 262
262 262 262 262 263 264 265 265 265 266 266 266 266 267 271 275 277 277 274 272 270 269 269 269 267 263 260 260 261 263 266 268 268 266 260 251 240 232 234 189 196 216 212 115 314 298 298 294 290 284 279 281 283 284 283 282 281 281 281 282 284 288 290 292 293 293 294 296 298 300 301 303 302 300 298 295 293 290 288 285 282 280 277 274 271 268 267 265 265 263 263 264 266 267 266 263 258 255 255 256 257 257 259
265 265 265 264 264 264 263 261 261 261 262 260 258 256 258 263 267 269 270 269 268 268 267 267 265 259 251 251 253 256 259 261 260 256 252 246 237 230 224 202 156 96 51 70 179 244 267 300 320 309 294 290 288 286 284 283 281 280 280 282 287 292 295 295 294 294 294 295 296 297 299 300 301 300 300 299 298 296 294 291 288 285 282 278 274 271 268 266 264 263 261 261 263 265 265 265 261 256 252 252 252 252 253
268 268 267 266 265 264 262 258 256 255 255 255 254 254 255 257 258 259 259 261 263 264 264 265 264 260 253 248 247 249 251 253 252 249 246 242 238 235 234 226 204 180 280 258 220 223 234 41 4 319 295 290 290 287 284 286 286 285 286 289 291 294 294 294 292 291 291 292 294 296 298 299 299 299 300 301 301 300 298 296 293 290 286 283 279 274 270 267 264 262 260 259 259 260 261 263 262 258 253 250 249 248 247
271 270 269 268 267 264 260 256 253 253 253 253 253 254 255 255 254 253 253 255 256 258 259 260 261 262 261 255 249 247 247 247 249 248 245 242 237 234 234 232 228 224 232 241 248 241 223 56 58 349 288 295 293 288 290 293 293 292 293 294 296 296 295 294 292 291 292 293 295 297 298 299 299 300 301 303 303 302 300 298 295 292 289 286 282 278 273 269 265 262 260 258 257 255 253 254 256 257 254 250 248 247 246
274 273 272 271 268 265 260 256 254 253 252 252 252 253 253 252 251 250 250 251 251 252 254 255 258 261 263 262 255 248 245 244 245 246 245 242 237 235 233 234 235 238 242 248 259 272 296 35 126 213 291 299 290 283 285 290 293 295 296 297 298 298 296 294 293 292 293 294 296 297 298 299 300 301 303 304 305 304 302 300 297 294 291 288 285 281 277 272 268 264 261 258 255 252 247 244 245 247 248 247 246 246 246
275 274 273 272 269 265 260 258 256 254 253 252 252 251 251 250 249 249 250 250 250 249 249 251 254 259 265 267 260 251 244 244 244 243 242 242 240 237 235 236 237 239 242 247 252 256 259 259 240 233 284 296 291 286 282 283 287 290 292 294 294 294 294 293 292 291 292 293 295 297 298 299 300 301 302 304 305 305 302 300 298 296 293 290 287 284 280 276 272 267 262 259 256 252 247 243 241 242 243 244 244 245 246
273 273 272 270 268 264 260 257 256 255 254 253 252 251 250 249 249 248 248 248 249 249 249 249 250 254 259 263 260 252 243 243 244 243 239 238 242 243 239 239 239 240 244 247 250 253 253 251 249 246 242 263 286 296 290 280 278 280 283 286 288 290 290 290 290 290 290 292 294 296 298 299 300 302 303 304 304 303 301 299 298 296 294 292 290 287 284 280 276 271 265 260 257 254 250 246 244 243 243 244 245 245 245
269 269 269 269 267 264 259 256 254 254 253 252 251 250 250 249 247 245 243 244 247 250 250 248 246 247 246 248 252 252 249 247 245 244 240 234 239 246 242 238 238 241 244 247 250 252 253 253 252 250 244 246 267 281 282 280 278 277 277 279 282 284 285 286 286 287 289 291 294 296 298 300 301 303 304 304 303 301 299 298 297 296 295 293 291 289 287 284 280 275 269 263 258 255 254 251 248 246 245 245 246 245 245